Tracking 19846 objects as of 19-Sep-2019
HD Live streaming from Space Station
objects crossing your sky now

COSMOS 382

Track COSMOS 382 now!
10-day predictions
COSMOS 382 is classified as:


NORAD ID: 4786
Int'l Code: 1970-103A
Perigee: 2,478.5 km
Apogee: 5,191.1 km
Inclination: 55.9 °
Period: 171.0 minutes
Semi major axis: 10205 km
RCS: 19.6936 m2 (large)
Launch date: December 2, 1970
Source: Commonwealth of Independent States (former USSR) (CIS)
Launch site: TYURATAM MISSILE AND SPACE COMPLEX (TTMTR)
aabbcc
Your satellite tracking list
Your tracking list is empty




NASA's NSSDC Master Catalog

Two Line Element Set (TLE):
1  4786U 70103A   19261.25283448 -.00000025 +00000-0 +00000-0 0  9999
2  4786 055.8653 173.9897 1328977 010.5011 092.2836 08.42042156501051
Source of the keplerian elements: AFSPC